Weather History for Cape Cod CGAS, MA

Change the Weather History Date:

Sunday, April 13, 2014

  Actual Average Record
Temperature  
Mean Temperature 50 °F -  
Max Temperature 62 °F 52 °F 66 °F (2002)
Min Temperature 37 °F 35 °F 30 °F (2005)
Degree Days  
Heating Degree Days 16    
Moisture  
Dew Point 42 °F    
Average Humidity 70    
Maximum Humidity 94    
Minimum Humidity 31    
Precipitation  
Precipitation 0.00 in - - ()
Sea Level Pressure  
Sea Level Pressure 30.19 in    
Wind  
Wind Speed 9 mph (South)    
Max Wind Speed 23 mph    
Max Gust Speed 29 mph    
Visibility 10 miles    
Events      
Averages and records for this station are not official NWS values.
T = Trace of Precipitation, MM = Missing Value Source: NWS Daily Summary

Daily Weather History Graph

Daily Weather History Graph

Search for Another Location

Airport:

Trip Planner

Search our weather history database for the weather conditions in past years. The results will help you decide how hot, cold, wet, or windy it might be!

Date:

Astronomy

Apr. 13, 2014 Rise Set
Actual Time 6:05 AM EDT 7:20 PM EDT
Civil Twilight 5:36 AM EDT 7:49 PM EDT
Nautical Twilight 5:02 AM EDT 8:23 PM EDT
Astronomical Twilight 4:26 AM EDT 9:00 PM EDT
Moon 5:54 PM EDT (4/13) 5:03 AM EDT (4/13)
Length of Visible Light 14h 12m
Length of Day
13h 15m
Waxing Gibbous, 97% of the Moon is Illuminated
Apr 13
Waxing Gibbous
Apr 15
Full
Apr 22
Last Quarter
Apr 29
New
May 6
First Quarter

Hourly Weather History & Observations

Time (EDT) Temp. Windchill Dew Point Humidity Pressure Visibility Wind Dir Wind Speed Gust Speed Precip Events Conditions
12:15 AM 44.6 °F 39.7 °F 35.6 °F 71% 30.25 in 10.0 mi SSW 9.2 mph - N/A   Partly Cloudy
12:35 AM 42.8 °F 38.6 °F 35.6 °F 76% 30.25 in 10.0 mi SSW 6.9 mph - N/A   Clear
12:55 AM 42.8 °F 39.3 °F 33.8 °F 70% 30.25 in 10.0 mi SW 5.8 mph - N/A   Partly Cloudy
1:15 AM 44.6 °F 42.2 °F 33.8 °F 66% 30.25 in 10.0 mi SW 4.6 mph - N/A   Mostly Cloudy
1:35 AM 44.6 °F 43.1 °F 33.8 °F 66% 30.25 in 10.0 mi SW 3.5 mph - N/A   Mostly Cloudy
1:55 AM 42.8 °F 40.1 °F 32.0 °F 66% 30.25 in 10.0 mi WSW 4.6 mph - N/A   Scattered Clouds
2:15 AM 41.0 °F - 32.0 °F 70% 30.25 in 10.0 mi Calm Calm - N/A   Scattered Clouds
2:35 AM 42.8 °F - 32.0 °F 66% 30.26 in 10.0 mi Calm Calm - N/A   Partly Cloudy
2:55 AM 41.0 °F - 32.0 °F 70% 30.26 in 10.0 mi Calm Calm - N/A   Clear
3:15 AM 41.0 °F 38.0 °F 32.0 °F 70% 30.25 in 10.0 mi SW 4.6 mph - N/A   Clear
3:35 AM 39.2 °F 37.0 °F 32.0 °F 75% 30.25 in 10.0 mi SW 3.5 mph - N/A   Clear
3:55 AM 39.2 °F - 32.0 °F 75% 30.26 in 10.0 mi Calm Calm - N/A   Clear
4:15 AM 39.2 °F - 33.8 °F 81% 30.25 in 10.0 mi Calm Calm - N/A   Clear
4:35 AM 39.2 °F 37.0 °F 32.0 °F 75% 30.26 in 10.0 mi South 3.5 mph - N/A   Mostly Cloudy
4:55 AM 37.4 °F - 33.8 °F 87% 30.26 in 10.0 mi Calm Calm - N/A   Overcast
5:15 AM 39.2 °F - 33.8 °F 81% 30.26 in 10.0 mi Calm Calm - N/A   Overcast
5:35 AM 37.4 °F 33.8 °F 33.8 °F 87% 30.26 in 10.0 mi SE 4.6 mph - N/A   Overcast
5:55 AM 39.2 °F - 35.6 °F 87% 30.26 in 10.0 mi Calm Calm - N/A   Overcast
6:15 AM 39.2 °F - 37.4 °F 93% 30.26 in 10.0 mi Calm Calm - N/A   Scattered Clouds
6:35 AM 41.0 °F - 39.2 °F 93% 30.27 in 10.0 mi Calm Calm - N/A   Scattered Clouds
6:55 AM 42.8 °F 40.1 °F 39.2 °F 87% 30.28 in 10.0 mi SE 4.6 mph - N/A   Scattered Clouds
7:15 AM 46.4 °F 41.9 °F 41.0 °F 81% 30.28 in 10.0 mi South 9.2 mph - N/A   Clear
7:35 AM 48.2 °F - 42.8 °F 82% 30.27 in 10.0 mi SSE 9.2 mph - N/A   Clear
7:55 AM 50.0 °F - 42.8 °F 76% 30.27 in 10.0 mi South 11.5 mph - N/A   Partly Cloudy
8:35 AM 53.6 °F - 41.0 °F 62% 30.26 in 10.0 mi South 15.0 mph - N/A   Clear
8:55 AM 55.4 °F - 41.0 °F 58% 30.25 in 10.0 mi South 13.8 mph - N/A   Scattered Clouds
9:15 AM 55.4 °F - 39.2 °F 54% 30.26 in 10.0 mi South 11.5 mph - N/A   Overcast
9:35 AM 53.6 °F - 41.0 °F 62% 30.25 in 10.0 mi SSE 15.0 mph - N/A   Overcast
9:55 AM 57.2 °F - 39.2 °F 51% 30.26 in 10.0 mi South 13.8 mph - N/A   Scattered Clouds
10:15 AM 57.2 °F - 35.6 °F 44% 30.25 in 10.0 mi South 17.3 mph - N/A   Mostly Cloudy
10:35 AM 59.0 °F - 33.8 °F 39% 30.25 in 10.0 mi South 15.0 mph - N/A   Scattered Clouds
10:55 AM 60.8 °F - 32.0 °F 34% 30.24 in 10.0 mi South 18.4 mph - N/A   Partly Cloudy
11:15 AM 62.6 °F - 32.0 °F 32% 30.23 in 10.0 mi South 17.3 mph 24.2 mph N/A   Scattered Clouds
11:35 AM 60.8 °F - 30.2 °F 31% 30.23 in 10.0 mi South 19.6 mph 25.3 mph N/A   Mostly Cloudy
11:55 AM 59.0 °F - 33.8 °F 39% 30.23 in 10.0 mi South 13.8 mph - N/A   Mostly Cloudy
12:15 PM 59.0 °F - 41.0 °F 51% 30.22 in 10.0 mi South 13.8 mph 21.9 mph N/A   Mostly Cloudy
12:35 PM 60.8 °F - 42.8 °F 52% 30.22 in 10.0 mi South 17.3 mph - N/A   Mostly Cloudy
12:55 PM 59.0 °F - 39.2 °F 48% 30.22 in 10.0 mi South 16.1 mph - N/A   Overcast
1:15 PM 59.0 °F - 41.0 °F 51% 30.22 in 10.0 mi South 15.0 mph 20.7 mph N/A   Overcast
1:35 PM 59.0 °F - 41.0 °F 51% 30.21 in 10.0 mi South 17.3 mph - N/A   Overcast
1:55 PM 59.0 °F - 41.0 °F 51% 30.21 in 10.0 mi South 16.1 mph 24.2 mph N/A   Overcast
2:15 PM 57.2 °F - 42.8 °F 59% 30.20 in 10.0 mi South 18.4 mph 25.3 mph N/A   Overcast
2:35 PM 57.2 °F - 44.6 °F 63% 30.18 in 10.0 mi South 18.4 mph - N/A   Overcast
2:55 PM 60.8 °F - 46.4 °F 59% 30.17 in 10.0 mi South 16.1 mph - N/A   Scattered Clouds
3:15 PM 60.8 °F - 46.4 °F 59% 30.17 in 10.0 mi South 16.1 mph 23.0 mph N/A   Clear
3:35 PM 60.8 °F - 46.4 °F 59% 30.16 in 10.0 mi South 15.0 mph 24.2 mph N/A   Clear
3:55 PM 60.8 °F - 48.2 °F 63% 30.14 in 10.0 mi South 15.0 mph 20.7 mph N/A   Clear
4:15 PM 60.8 °F - 48.2 °F 63% 30.14 in 10.0 mi South 16.1 mph 23.0 mph N/A   Clear
4:35 PM 60.8 °F - 48.2 °F 63% 30.13 in 10.0 mi South 15.0 mph - N/A   Clear
4:55 PM 60.8 °F - 50.0 °F 68% 30.12 in 10.0 mi South 16.1 mph 23.0 mph N/A   Clear
5:15 PM 60.8 °F - 50.0 °F 68% 30.11 in 10.0 mi South 13.8 mph 20.7 mph N/A   Clear
5:35 PM 60.8 °F - 51.8 °F 72% 30.10 in 10.0 mi South 13.8 mph - N/A   Clear
5:55 PM 60.8 °F - 51.8 °F 72% 30.10 in 10.0 mi South 19.6 mph 26.5 mph N/A   Clear
6:15 PM 59.0 °F - 51.8 °F 77% 30.11 in 10.0 mi SSW 17.3 mph 24.2 mph N/A   Clear
6:35 PM 59.0 °F - 51.8 °F 77% 30.10 in 10.0 mi SSW 18.4 mph - N/A   Clear
6:55 PM 57.2 °F - 51.8 °F 82% 30.10 in 10.0 mi SSW 12.7 mph 20.7 mph N/A   Clear
7:15 PM 55.4 °F - 51.8 °F 88% 30.10 in 10.0 mi SSW 18.4 mph - N/A   Clear
7:35 PM 55.4 °F - 51.8 °F 88% 30.09 in 10.0 mi SSW 17.3 mph 23.0 mph N/A   Clear
7:55 PM 55.4 °F - 51.8 °F 88% 30.10 in 10.0 mi SSW 13.8 mph - N/A   Partly Cloudy
8:15 PM 55.4 °F - 51.8 °F 88% 30.10 in 10.0 mi SSW 16.1 mph - N/A   Clear
8:35 PM 57.2 °F - 51.8 °F 82% 30.10 in 10.0 mi SW 12.7 mph - N/A   Clear
8:55 PM 57.2 °F - 51.8 °F 82% 30.09 in 10.0 mi South 13.8 mph 23.0 mph N/A   Clear
9:15 PM 55.4 °F - 51.8 °F 88% 30.11 in 10.0 mi SSW 11.5 mph - N/A   Partly Cloudy
9:35 PM 55.4 °F - 51.8 °F 88% 30.11 in 10.0 mi South 9.2 mph - N/A   Partly Cloudy
9:55 PM 57.2 °F - 51.8 °F 82% 30.11 in 10.0 mi SSW 11.5 mph 18.4 mph N/A   Clear
10:15 PM 57.2 °F - 53.6 °F 88% 30.10 in 10.0 mi South 12.7 mph 20.7 mph N/A   Scattered Clouds
10:35 PM 55.4 °F - 53.6 °F 94% 30.10 in 10.0 mi SSW 10.4 mph - N/A   Mostly Cloudy
10:55 PM 57.2 °F - 53.6 °F 88% 30.10 in 10.0 mi SSW 11.5 mph - N/A   Mostly Cloudy
11:15 PM 57.2 °F - 53.6 °F 88% 30.10 in 10.0 mi SSW 12.7 mph 20.7 mph N/A   Scattered Clouds
11:35 PM 57.2 °F - 53.6 °F 88% 30.10 in 10.0 mi SSW 17.3 mph - N/A   Scattered Clouds
11:55 PM 59.0 °F - 55.4 °F 88% 30.10 in 10.0 mi SW 23.0 mph 28.8 mph N/A   Clear